Time,TemperatureF,DewpointF,PressureIn,WindDirection,WindDirectionDegrees,WindSpeedMPH,WindSpeedGustMPH,Humidity,HourlyPrecipIn,Conditions,Clouds,dailyrainin,SolarRadiationWatts/m^2,SoftwareType,DateUTC
2013-02-19 00:00:00,54.2,47.5,30.21,ESE,115,3.0,7.0,78,0.00,,,0.00,0,Wunderground v.1.15,2013-02-19 05:00:00,
2013-02-19 00:01:00,54.1,47.4,30.21,ESE,115,3.0,8.0,78,0.00,,,0.00,0,Wunderground v.1.15,2013-02-19 05:01:00,
2013-02-19 00:04:00,54.1,47.7,30.21,ESE,115,3.0,8.0,79,0.00,,,0.00,0,Wunderground v.1.15,2013-02-19 05:04:00,
2013-02-19 00:10:00,53.9,47.5,30.21,ESE,115,3.0,3.0,79,0.00,,,0.00,0,Wunderground v.1.15,2013-02-19 05:10:00,
2013-02-19 00:12:00,53.8,47.4,30.21,ESE,115,3.0,8.0,79,0.00,,,0.00,0,Wunderground v.1.15,2013-02-19 05:12:00,
2013-02-19 00:17:00,53.7,47.7,30.21,ESE,115,3.0,8.0,80,0.00,,,0.00,0,Wunderground v.1.15,2013-02-19 05:17:00,
2013-02-19 00:23:00,53.6,47.6,30.21,ESE,115,3.0,8.0,80,0.00,,,0.00,0,Wunderground v.1.15,2013-02-19 05:23:00,
2013-02-19 00:28:00,53.3,47.3,30.21,ESE,115,3.0,8.0,80,0.00,,,0.00,0,Wunderground v.1.15,2013-02-19 05:28:00,
2013-02-19 00:33:00,52.9,46.9,30.21,ESE,115,2.0,8.0,80,0.00,,,0.00,0,Wunderground v.1.15,2013-02-19 05:33:00,
2013-02-19 00:38:00,52.4,46.7,30.21,ESE,115,1.0,8.0,81,0.00,,,0.00,0,Wunderground v.1.15,2013-02-19 05:38:00,
2013-02-19 00:44:00,51.9,46.6,30.21,ESE,115,1.0,8.0,82,0.00,,,0.00,0,Wunderground v.1.15,2013-02-19 05:44:00,
2013-02-19 00:49:00,51.5,46.5,30.21,ESE,115,0.0,8.0,83,0.00,,,0.00,0,Wunderground v.1.15,2013-02-19 05:49:00,
2013-02-19 00:54:00,51.2,46.2,30.22,ESE,115,0.0,8.0,83,0.00,,,0.00,0,Wunderground v.1.15,2013-02-19 05:54:00,
2013-02-19 01:00:00,51.0,46.6,30.21,ESE,115,0.0,8.0,85,0.00,,,0.00,0,Wunderground v.1.15,2013-02-19 06:00:00,
2013-02-19 01:05:00,50.9,46.6,30.21,ESE,115,0.0,8.0,85,0.00,,,0.00,0,Wunderground v.1.15,2013-02-19 06:05:00,
2013-02-19 01:10:00,50.6,46.6,30.20,ESE,115,0.0,7.0,86,0.00,,,0.00,0,Wunderground v.1.15,2013-02-19 06:10:00,
2013-02-19 01:16:00,50.5,46.8,30.21,ESE,115,0.0,7.0,87,0.00,,,0.00,0,Wunderground v.1.15,2013-02-19 06:16:00,
2013-02-19 01:22:00,50.3,46.6,30.21,ESE,115,0.0,7.0,87,0.00,,,0.00,0,Wunderground v.1.15,2013-02-19 06:22:00,
2013-02-19 01:27:00,50.3,46.9,30.22,ESE,115,0.0,7.0,88,0.00,,,0.00,0,Wunderground v.1.15,2013-02-19 06:27:00,
2013-02-19 01:32:00,50.3,47.2,30.22,ESE,115,1.0,7.0,89,0.00,,,0.00,0,Wunderground v.1.15,2013-02-19 06:32:00,
2013-02-19 01:38:00,50.2,47.1,30.21,ESE,115,2.0,7.0,89,0.00,,,0.00,0,Wunderground v.1.15,2013-02-19 06:38:00,
2013-02-19 01:43:00,50.4,47.6,30.21,ESE,115,3.0,7.0,90,0.00,,,0.00,0,Wunderground v.1.15,2013-02-19 06:43:00,
2013-02-19 01:48:00,50.5,48.0,30.21,ESE,115,3.0,7.0,91,0.00,,,0.00,0,Wunderground v.1.15,2013-02-19 06:48:00,
2013-02-19 01:54:00,50.7,48.2,30.21,ESE,115,3.0,7.0,91,0.00,,,0.00,0,Wunderground v.1.15,2013-02-19 06:54:00,
2013-02-19 01:59:00,50.6,48.1,30.21,ESE,115,2.0,7.0,91,0.00,,,0.00,0,Wunderground v.1.15,2013-02-19 06:59:00,
2013-02-19 02:05:00,50.4,47.9,30.20,ESE,115,2.0,7.0,91,0.00,,,0.00,0,Wunderground v.1.15,2013-02-19 07:05:00,
2013-02-19 02:11:00,50.3,47.8,30.20,ESE,115,3.0,3.0,91,0.00,,,0.00,0,Wunderground v.1.15,2013-02-19 07:11:00,
2013-02-19 02:16:00,50.3,48.1,30.21,ESE,115,3.0,4.0,92,0.00,,,0.00,0,Wunderground v.1.15,2013-02-19 07:16:00,
2013-02-19 02:21:00,50.2,48.0,30.20,ESE,115,3.0,3.0,92,0.00,,,0.00,0,Wunderground v.1.15,2013-02-19 07:21:00,
2013-02-19 02:27:00,50.4,48.5,30.20,ESE,115,3.0,3.0,93,0.00,,,0.00,0,Wunderground v.1.15,2013-02-19 07:27:00,
2013-02-19 02:32:00,50.4,48.2,30.20,ESE,115,2.0,3.0,92,0.00,,,0.00,0,Wunderground v.1.15,2013-02-19 07:32:00,
2013-02-19 02:37:00,50.3,48.1,30.19,ESE,115,2.0,3.0,92,0.00,,,0.00,0,Wunderground v.1.15,2013-02-19 07:37:00,
2013-02-19 02:43:00,50.3,48.1,30.19,ESE,115,2.0,4.0,92,0.00,,,0.00,0,Wunderground v.1.15,2013-02-19 07:43:00,
2013-02-19 02:48:00,50.3,48.1,30.19,ESE,115,2.0,4.0,92,0.00,,,0.00,0,Wunderground v.1.15,2013-02-19 07:48:00,
2013-02-19 02:53:00,50.1,47.9,30.19,ESE,115,0.0,3.0,92,0.00,,,0.00,0,Wunderground v.1.15,2013-02-19 07:53:00,
2013-02-19 02:58:00,50.1,47.9,30.19,ESE,115,0.0,3.0,92,0.00,,,0.00,0,Wunderground v.1.15,2013-02-19 07:58:00,
2013-02-19 03:04:00,49.9,47.7,30.19,ESE,115,0.0,4.0,92,0.00,,,0.00,0,Wunderground v.1.15,2013-02-19 08:04:00,
2013-02-19 03:09:00,49.7,47.5,30.19,ESE,115,0.0,4.0,92,0.00,,,0.00,0,Wunderground v.1.15,2013-02-19 08:09:00,
2013-02-19 03:14:00,49.6,47.4,30.18,ESE,115,0.0,4.0,92,0.00,,,0.00,0,Wunderground v.1.15,2013-02-19 08:14:00,
2013-02-19 03:20:00,49.4,47.2,30.18,ESE,115,0.0,4.0,92,0.00,,,0.00,0,Wunderground v.1.15,2013-02-19 08:20:00,
2013-02-19 03:25:00,49.3,47.4,30.18,ESE,115,0.0,4.0,93,0.00,,,0.00,0,Wunderground v.1.15,2013-02-19 08:25:00,
2013-02-19 03:30:00,49.2,47.3,30.18,ESE,115,0.0,4.0,93,0.00,,,0.00,0,Wunderground v.1.15,2013-02-19 08:30:00,
2013-02-19 03:35:00,49.1,47.2,30.18,ESE,115,0.0,4.0,93,0.00,,,0.00,0,Wunderground v.1.15,2013-02-19 08:35:00,
2013-02-19 03:41:00,48.9,47.0,30.17,ESE,115,0.0,4.0,93,0.00,,,0.00,0,Wunderground v.1.15,2013-02-19 08:41:00,
2013-02-19 03:46:00,48.8,46.9,30.17,ESE,115,0.0,4.0,93,0.00,,,0.00,0,Wunderground v.1.15,2013-02-19 08:46:00,
2013-02-19 03:51:00,48.8,46.9,30.17,ESE,115,0.0,4.0,93,0.00,,,0.00,0,Wunderground v.1.15,2013-02-19 08:51:00,
2013-02-19 03:57:00,48.8,46.9,30.16,ESE,115,0.0,4.0,93,0.00,,,0.00,0,Wunderground v.1.15,2013-02-19 08:57:00,
2013-02-19 04:02:00,48.7,46.8,30.17,ESE,115,0.0,5.0,93,0.00,,,0.00,0,Wunderground v.1.15,2013-02-19 09:02:00,
2013-02-19 04:07:00,48.6,46.7,30.17,ESE,115,0.0,5.0,93,0.00,,,0.00,0,Wunderground v.1.15,2013-02-19 09:07:00,
2013-02-19 04:13:00,48.5,46.6,30.17,ESE,115,0.0,5.0,93,0.00,,,0.00,0,Wunderground v.1.15,2013-02-19 09:13:00,
2013-02-19 04:18:00,48.3,46.4,30.17,ESE,115,0.0,5.0,93,0.00,,,0.00,0,Wunderground v.1.15,2013-02-19 09:18:00,
2013-02-19 04:24:00,48.3,46.4,30.17,ESE,115,0.0,5.0,93,0.00,,,0.00,0,Wunderground v.1.15,2013-02-19 09:24:00,
2013-02-19 04:29:00,48.3,46.4,30.17,ESE,115,0.0,5.0,93,0.00,,,0.00,0,Wunderground v.1.15,2013-02-19 09:29:00,
2013-02-19 04:34:00,48.2,46.3,30.17,ESE,115,0.0,5.0,93,0.00,,,0.00,0,Wunderground v.1.15,2013-02-19 09:34:00,
2013-02-19 04:40:00,48.4,46.5,30.16,ESE,115,0.0,5.0,93,0.00,,,0.00,0,Wunderground v.1.15,2013-02-19 09:40:00,
2013-02-19 04:46:00,48.5,46.6,30.16,ESE,115,0.0,5.0,93,0.00,,,0.00,0,Wunderground v.1.15,2013-02-19 09:46:00,
2013-02-19 04:51:00,48.3,46.4,30.16,ESE,115,0.0,5.0,93,0.00,,,0.00,0,Wunderground v.1.15,2013-02-19 09:51:00,
2013-02-19 04:56:00,48.3,46.4,30.16,ESE,115,0.0,5.0,93,0.00,,,0.00,0,Wunderground v.1.15,2013-02-19 09:56:00,
2013-02-19 05:02:00,48.3,46.4,30.16,ESE,115,0.0,5.0,93,0.00,,,0.00,0,Wunderground v.1.15,2013-02-19 10:02:00,
2013-02-19 05:07:00,48.3,46.4,30.16,ESE,115,0.0,5.0,93,0.00,,,0.00,0,Wunderground v.1.15,2013-02-19 10:07:00,
2013-02-19 05:12:00,48.3,46.4,30.17,ESE,115,0.0,1.0,93,0.00,,,0.00,0,Wunderground v.1.15,2013-02-19 10:12:00,
2013-02-19 05:18:00,48.5,46.9,30.17,ESE,115,0.0,1.0,94,0.00,,,0.00,0,Wunderground v.1.15,2013-02-19 10:18:00,
2013-02-19 05:23:00,48.8,47.2,30.16,ESE,115,0.0,1.0,94,0.00,,,0.00,0,Wunderground v.1.15,2013-02-19 10:23:00,
2013-02-19 05:28:00,49.0,47.3,30.16,ESE,115,0.0,1.0,94,0.00,,,0.00,0,Wunderground v.1.15,2013-02-19 10:28:00,
2013-02-19 05:33:00,49.1,47.2,30.16,ESE,115,0.0,1.0,93,0.00,,,0.00,0,Wunderground v.1.15,2013-02-19 10:33:00,
2013-02-19 05:39:00,49.4,47.5,30.16,ESE,115,0.0,1.0,93,0.00,,,0.00,0,Wunderground v.1.15,2013-02-19 10:39:00,
2013-02-19 05:44:00,49.5,47.6,30.17,ESE,115,0.0,1.0,93,0.00,,,0.00,0,Wunderground v.1.15,2013-02-19 10:44:00,
2013-02-19 05:50:00,49.5,47.6,30.17,ESE,115,0.0,1.0,93,0.00,,,0.00,0,Wunderground v.1.15,2013-02-19 10:50:00,
2013-02-19 05:55:00,49.5,47.3,30.17,ESE,115,0.0,1.0,92,0.00,,,0.00,0,Wunderground v.1.15,2013-02-19 10:55:00,
2013-02-19 06:00:00,49.5,47.3,30.17,ESE,115,0.0,1.0,92,0.00,,,0.00,0,Wunderground v.1.15,2013-02-19 11:00:00,
2013-02-19 06:05:00,49.5,47.3,30.16,ESE,115,0.0,1.0,92,0.00,,,0.00,0,Wunderground v.1.15,2013-02-19 11:05:00,
2013-02-19 06:11:00,49.5,47.3,30.16,ESE,115,0.0,0.0,92,0.00,,,0.00,0,Wunderground v.1.15,2013-02-19 11:11:00,
2013-02-19 06:16:00,49.6,47.4,30.16,ESE,115,0.0,0.0,92,0.00,,,0.00,0,Wunderground v.1.15,2013-02-19 11:16:00,
2013-02-19 06:21:00,49.7,47.5,30.16,ESE,115,0.0,0.0,92,0.00,,,0.00,0,Wunderground v.1.15,2013-02-19 11:21:00,
2013-02-19 06:27:00,49.7,47.5,30.15,ESE,115,0.0,0.0,92,0.00,,,0.00,0,Wunderground v.1.15,2013-02-19 11:27:00,
2013-02-19 06:32:00,49.8,47.3,30.16,ESE,115,0.0,0.0,91,0.00,,,0.00,0,Wunderground v.1.15,2013-02-19 11:32:00,
2013-02-19 06:37:00,49.9,47.4,30.15,ESE,115,1.0,1.0,91,0.00,,,0.00,0,Wunderground v.1.15,2013-02-19 11:37:00,
2013-02-19 06:43:00,50.0,47.5,30.16,ESE,115,0.0,1.0,91,0.00,,,0.00,0,Wunderground v.1.15,2013-02-19 11:43:00,
2013-02-19 06:49:00,50.0,47.8,30.16,ESE,115,0.0,1.0,92,0.00,,,0.00,0,Wunderground v.1.15,2013-02-19 11:49:00,
2013-02-19 06:54:00,50.1,47.6,30.16,ESE,115,0.0,0.0,91,0.00,,,0.00,0,Wunderground v.1.15,2013-02-19 11:54:00,
2013-02-19 07:00:00,50.2,48.0,30.16,ESE,115,0.0,0.0,92,0.00,,,0.00,5,Wunderground v.1.15,2013-02-19 12:00:00,
2013-02-19 07:05:00,50.2,48.0,30.16,ESE,115,0.0,2.0,92,0.00,,,0.00,7,Wunderground v.1.15,2013-02-19 12:05:00,
2013-02-19 07:10:00,50.2,47.7,30.16,ESE,115,0.0,2.0,91,0.00,,,0.00,12,Wunderground v.1.15,2013-02-19 12:10:00,
2013-02-19 07:16:00,50.3,48.1,30.16,ESE,115,0.0,2.0,92,0.00,,,0.00,16,Wunderground v.1.15,2013-02-19 12:16:00,
2013-02-19 07:21:00,50.3,48.1,30.16,ESE,115,0.0,2.0,92,0.00,,,0.00,21,Wunderground v.1.15,2013-02-19 12:21:00,
2013-02-19 07:26:00,50.4,48.2,30.16,ESE,115,0.0,2.0,92,0.00,,,0.00,25,Wunderground v.1.15,2013-02-19 12:26:00,
2013-02-19 07:32:00,50.7,48.5,30.16,SE,143,0.0,2.0,92,0.00,,,0.00,28,Wunderground v.1.15,2013-02-19 12:32:00,
2013-02-19 07:37:00,50.9,48.7,30.16,SE,142,0.0,2.0,92,0.00,,,0.00,60,Wunderground v.1.15,2013-02-19 12:37:00,
2013-02-19 07:42:00,51.3,49.1,30.17,SE,142,0.0,2.0,92,0.00,,,0.00,86,Wunderground v.1.15,2013-02-19 12:42:00,
2013-02-19 07:48:00,51.8,49.5,30.16,SE,142,0.0,2.0,92,0.00,,,0.00,105,Wunderground v.1.15,2013-02-19 12:48:00,
2013-02-19 07:53:00,52.4,50.1,30.16,SE,142,0.0,2.0,92,0.00,,,0.00,123,Wunderground v.1.15,2013-02-19 12:53:00,
2013-02-19 07:58:00,53.3,51.0,30.16,SE,142,0.0,2.0,92,0.00,,,0.00,137,Wunderground v.1.15,2013-02-19 12:58:00,
2013-02-19 08:03:00,54.3,51.7,30.16,SE,142,0.0,3.0,91,0.00,,,0.00,153,Wunderground v.1.15,2013-02-19 13:03:00,
2013-02-19 08:09:00,55.3,52.4,30.17,SE,142,0.0,3.0,90,0.00,,,0.00,169,Wunderground v.1.15,2013-02-19 13:09:00,
2013-02-19 08:14:00,56.2,53.0,30.17,SE,142,0.0,3.0,89,0.00,,,0.00,183,Wunderground v.1.15,2013-02-19 13:14:00,
2013-02-19 08:20:00,56.9,53.1,30.17,SE,142,1.0,3.0,87,0.00,,,0.00,206,Wunderground v.1.15,2013-02-19 13:20:00,
2013-02-19 08:25:00,57.5,53.3,30.17,SSE,148,2.0,4.0,86,0.00,,,0.00,230,Wunderground v.1.15,2013-02-19 13:25:00,
2013-02-19 08:30:00,58.0,53.5,30.17,WSW,246,1.0,1.0,85,0.00,,,0.00,250,Wunderground v.1.15,2013-02-19 13:30:00,
2013-02-19 08:35:00,58.6,53.8,30.17,WSW,246,0.0,3.0,84,0.00,,,0.00,267,Wunderground v.1.15,2013-02-19 13:35:00,
2013-02-19 08:41:00,59.1,54.3,30.18,WSW,246,0.0,3.0,84,0.00,,,0.00,287,Wunderground v.1.15,2013-02-19 13:41:00,
2013-02-19 08:46:00,59.7,54.5,30.18,WSW,246,1.0,4.0,83,0.00,,,0.00,306,Wunderground v.1.15,2013-02-19 13:46:00,
2013-02-19 08:51:00,60.3,55.1,30.19,WSW,246,3.0,5.0,83,0.00,,,0.00,323,Wunderground v.1.15,2013-02-19 13:51:00,
2013-02-19 08:57:00,61.0,55.5,30.19,WSW,246,4.0,5.0,82,0.00,,,0.00,162,Wunderground v.1.15,2013-02-19 13:57:00,
2013-02-19 09:02:00,61.6,56.0,30.18,WSW,240,4.0,5.0,82,0.00,,,0.00,250,Wunderground v.1.15,2013-02-19 14:02:00,
2013-02-19 09:07:00,62.3,56.4,30.18,South,190,5.0,6.0,81,0.00,,,0.00,381,Wunderground v.1.15,2013-02-19 14:07:00,
2013-02-19 09:13:00,63.1,57.5,30.18,SSW,196,6.0,8.0,82,0.00,,,0.00,403,Wunderground v.1.15,2013-02-19 14:13:00,
2013-02-19 09:18:00,63.8,58.2,30.18,South,188,7.0,10.0,82,0.00,,,0.00,420,Wunderground v.1.15,2013-02-19 14:18:00,
2013-02-19 09:23:00,64.3,58.3,30.18,SSW,198,7.0,8.0,81,0.00,,,0.00,438,Wunderground v.1.15,2013-02-19 14:23:00,
2013-02-19 09:28:00,64.5,58.2,30.18,SSW,192,7.0,8.0,80,0.00,,,0.00,454,Wunderground v.1.15,2013-02-19 14:28:00,
2013-02-19 09:34:00,64.9,58.2,30.18,SSW,192,8.0,11.0,79,0.00,,,0.00,475,Wunderground v.1.15,2013-02-19 14:34:00,
2013-02-19 09:39:00,65.2,58.5,30.18,SSW,192,9.0,11.0,79,0.00,,,0.00,482,Wunderground v.1.15,2013-02-19 14:39:00,
2013-02-19 09:45:00,65.5,58.5,30.18,SSW,201,8.0,10.0,78,0.00,,,0.00,485,Wunderground v.1.15,2013-02-19 14:45:00,
2013-02-19 09:50:00,65.9,58.8,30.18,South,190,8.0,8.0,78,0.00,,,0.00,510,Wunderground v.1.15,2013-02-19 14:50:00,
2013-02-19 09:55:00,66.3,58.9,30.18,SSW,200,8.0,8.0,77,0.00,,,0.00,540,Wunderground v.1.15,2013-02-19 14:55:00,
2013-02-19 10:00:00,66.7,58.5,30.18,SSW,198,10.0,11.0,75,0.00,,,0.00,533,Wunderground v.1.15,2013-02-19 15:00:00,
2013-02-19 10:06:00,67.0,58.8,30.18,SSW,192,11.0,13.0,75,0.00,,,0.00,566,Wunderground v.1.15,2013-02-19 15:06:00,
2013-02-19 10:11:00,67.4,59.2,30.18,SSW,208,10.0,12.0,75,0.00,,,0.00,578,Wunderground v.1.15,2013-02-19 15:11:00,
2013-02-19 10:16:00,67.7,58.7,30.18,South,190,9.0,12.0,73,0.00,,,0.00,594,Wunderground v.1.15,2013-02-19 15:16:00,
2013-02-19 10:22:00,68.2,58.8,30.18,South,191,9.0,12.0,72,0.00,,,0.00,608,Wunderground v.1.15,2013-02-19 15:22:00,
2013-02-19 10:27:00,68.5,58.3,30.18,SSW,192,10.0,14.0,70,0.00,,,0.00,633,Wunderground v.1.15,2013-02-19 15:27:00,
2013-02-19 10:32:00,68.8,58.2,30.18,SSW,199,11.0,13.0,69,0.00,,,0.00,647,Wunderground v.1.15,2013-02-19 15:32:00,
2013-02-19 10:38:00,69.2,57.8,30.18,SSW,212,11.0,13.0,67,0.00,,,0.00,659,Wunderground v.1.15,2013-02-19 15:38:00,
2013-02-19 10:44:00,69.4,57.5,30.17,SSW,200,13.0,15.0,66,0.00,,,0.00,675,Wunderground v.1.15,2013-02-19 15:44:00,
2013-02-19 10:49:00,69.7,55.6,30.17,SSW,211,12.0,15.0,61,0.00,,,0.00,686,Wunderground v.1.15,2013-02-19 15:49:00,
2013-02-19 10:54:00,70.1,55.6,30.17,SW,219,13.0,15.0,60,0.00,,,0.00,696,Wunderground v.1.15,2013-02-19 15:54:00,
2013-02-19 11:00:00,70.3,56.7,30.17,SSW,213,15.0,17.0,62,0.00,,,0.00,708,Wunderground v.1.15,2013-02-19 16:00:00,
2013-02-19 11:05:00,70.5,55.9,30.17,SSW,202,15.0,19.0,60,0.00,,,0.00,722,Wunderground v.1.15,2013-02-19 16:05:00,
2013-02-19 11:10:00,70.6,55.6,30.17,SW,227,14.0,14.0,59,0.00,,,0.00,733,Wunderground v.1.15,2013-02-19 16:10:00,
2013-02-19 11:16:00,70.7,56.6,30.17,SSW,201,13.0,19.0,61,0.00,,,0.00,738,Wunderground v.1.15,2013-02-19 16:16:00,
2013-02-19 11:21:00,70.4,56.3,30.17,SSW,192,15.0,15.0,61,0.00,,,0.00,749,Wunderground v.1.15,2013-02-19 16:21:00,
2013-02-19 11:26:00,70.3,57.5,30.17,SSW,200,15.0,18.0,64,0.00,,,0.00,756,Wunderground v.1.15,2013-02-19 16:26:00,
2013-02-19 11:31:00,70.4,55.8,30.16,SSW,207,14.0,19.0,60,0.00,,,0.00,765,Wunderground v.1.15,2013-02-19 16:31:00,
2013-02-19 11:37:00,70.6,56.9,30.16,SW,215,14.0,19.0,62,0.00,,,0.00,780,Wunderground v.1.15,2013-02-19 16:37:00,
2013-02-19 11:42:00,71.0,58.2,30.16,SW,216,13.0,15.0,64,0.00,,,0.00,824,Wunderground v.1.15,2013-02-19 16:42:00,
2013-02-19 11:47:00,71.2,57.5,30.16,SW,216,13.0,17.0,62,0.00,,,0.00,796,Wunderground v.1.15,2013-02-19 16:47:00,
2013-02-19 11:53:00,71.5,57.8,30.16,SSW,207,13.0,17.0,62,0.00,,,0.00,830,Wunderground v.1.15,2013-02-19 16:53:00,
2013-02-19 11:58:00,71.7,56.6,30.15,SW,236,16.0,23.0,59,0.00,,,0.00,831,Wunderground v.1.15,2013-02-19 16:58:00,
2013-02-19 12:03:00,71.9,59.5,30.15,SW,229,16.0,22.0,65,0.00,,,0.00,780,Wunderground v.1.15,2013-02-19 17:03:00,
2013-02-19 12:09:00,72.2,57.5,30.15,SW,220,14.0,22.0,60,0.00,,,0.00,810,Wunderground v.1.15,2013-02-19 17:09:00,
2013-02-19 12:14:00,72.0,58.3,30.15,SSW,196,15.0,22.0,62,0.00,,,0.00,835,Wunderground v.1.15,2013-02-19 17:14:00,
2013-02-19 12:19:00,71.8,58.1,30.15,SW,230,14.0,22.0,62,0.00,,,0.00,840,Wunderground v.1.15,2013-02-19 17:19:00,
2013-02-19 12:24:00,72.3,58.5,30.14,SSW,207,13.0,22.0,62,0.00,,,0.00,895,Wunderground v.1.15,2013-02-19 17:24:00,
2013-02-19 12:30:00,72.5,56.4,30.14,SW,229,14.0,22.0,57,0.00,,,0.00,886,Wunderground v.1.15,2013-02-19 17:30:00,
2013-02-19 12:35:00,72.7,56.6,30.14,SW,232,17.0,22.0,57,0.00,,,0.00,833,Wunderground v.1.15,2013-02-19 17:35:00,
2013-02-19 12:40:00,72.8,58.6,30.14,SW,231,18.0,18.0,61,0.00,,,0.00,833,Wunderground v.1.15,2013-02-19 17:40:00,
2013-02-19 12:46:00,72.8,58.6,30.13,WSW,246,18.0,22.0,61,0.00,,,0.00,826,Wunderground v.1.15,2013-02-19 17:46:00,
2013-02-19 12:51:00,72.8,58.6,30.13,WSW,239,17.0,22.0,61,0.00,,,0.00,853,Wunderground v.1.15,2013-02-19 17:51:00,
2013-02-19 12:56:00,72.9,58.2,30.12,SW,225,15.0,22.0,60,0.00,,,0.00,884,Wunderground v.1.15,2013-02-19 17:56:00,
2013-02-19 13:02:00,73.0,56.9,30.12,WSW,244,14.0,25.0,57,0.00,,,0.00,747,Wunderground v.1.15,2013-02-19 18:02:00,
2013-02-19 13:07:00,73.1,57.4,30.11,WSW,239,16.0,25.0,58,0.00,,,0.00,856,Wunderground v.1.15,2013-02-19 18:07:00,
2013-02-19 13:12:00,73.4,58.7,30.11,WSW,252,17.0,25.0,60,0.00,,,0.00,896,Wunderground v.1.15,2013-02-19 18:12:00,
2013-02-19 13:18:00,73.7,58.5,30.10,SW,235,13.0,25.0,59,0.00,,,0.00,949,Wunderground v.1.15,2013-02-19 18:18:00,
2013-02-19 13:23:00,73.6,58.9,30.10,SW,225,13.0,25.0,60,0.00,,,0.00,868,Wunderground v.1.15,2013-02-19 18:23:00,
2013-02-19 13:28:00,73.7,58.9,30.10,SW,226,14.0,25.0,60,0.00,,,0.00,856,Wunderground v.1.15,2013-02-19 18:28:00,
2013-02-19 13:34:00,73.9,60.1,30.09,WSW,254,14.0,25.0,62,0.00,,,0.00,823,Wunderground v.1.15,2013-02-19 18:34:00,
2013-02-19 13:39:00,73.9,58.2,30.09,SW,230,17.0,25.0,58,0.00,,,0.00,828,Wunderground v.1.15,2013-02-19 18:39:00,
2013-02-19 13:44:00,73.8,58.1,30.09,SW,236,16.0,25.0,58,0.00,,,0.00,831,Wunderground v.1.15,2013-02-19 18:44:00,
2013-02-19 13:49:00,73.8,59.0,30.09,SW,236,15.0,25.0,60,0.00,,,0.00,766,Wunderground v.1.15,2013-02-19 18:49:00,
2013-02-19 13:55:00,74.0,60.6,30.09,WSW,250,16.0,25.0,63,0.00,,,0.00,877,Wunderground v.1.15,2013-02-19 18:55:00,
2013-02-19 14:00:00,73.9,58.7,30.09,SSW,211,16.0,16.0,59,0.00,,,0.00,812,Wunderground v.1.15,2013-02-19 19:00:00,
2013-02-19 14:05:00,74.1,59.8,30.09,SW,223,14.0,28.0,61,0.00,,,0.00,831,Wunderground v.1.15,2013-02-19 19:05:00,
2013-02-19 14:11:00,74.1,60.7,30.08,WSW,248,13.0,28.0,63,0.00,,,0.00,879,Wunderground v.1.15,2013-02-19 19:11:00,
2013-02-19 14:16:00,74.3,58.6,30.08,SW,225,14.0,28.0,58,0.00,,,0.00,301,Wunderground v.1.15,2013-02-19 19:16:00,
2013-02-19 14:21:00,74.4,59.1,30.08,SW,229,14.0,28.0,59,0.00,,,0.00,865,Wunderground v.1.15,2013-02-19 19:21:00,
2013-02-19 14:27:00,74.6,58.4,30.08,SW,231,15.0,28.0,57,0.00,,,0.00,803,Wunderground v.1.15,2013-02-19 19:27:00,
2013-02-19 14:33:00,74.6,60.3,30.08,SW,234,15.0,28.0,61,0.00,,,0.00,847,Wunderground v.1.15,2013-02-19 19:33:00,
2013-02-19 14:38:00,75.0,59.2,30.07,WSW,244,14.0,28.0,58,0.00,,,0.00,817,Wunderground v.1.15,2013-02-19 19:38:00,
2013-02-19 14:43:00,75.3,60.0,30.07,SW,225,15.0,28.0,59,0.00,,,0.00,726,Wunderground v.1.15,2013-02-19 19:43:00,
2013-02-19 14:49:00,75.3,60.0,30.07,West,263,17.0,28.0,59,0.00,,,0.00,782,Wunderground v.1.15,2013-02-19 19:49:00,
2013-02-19 14:54:00,75.5,60.2,30.07,SW,229,17.0,28.0,59,0.00,,,0.00,763,Wunderground v.1.15,2013-02-19 19:54:00,
2013-02-19 15:00:00,75.5,59.2,30.06,WSW,246,16.0,16.0,57,0.00,,,0.00,717,Wunderground v.1.15,2013-02-19 20:00:00,
2013-02-19 15:05:00,75.1,58.8,30.06,SW,231,16.0,24.0,57,0.00,,,0.00,708,Wunderground v.1.15,2013-02-19 20:05:00,
2013-02-19 15:10:00,75.2,59.4,30.06,SW,215,17.0,17.0,58,0.00,,,0.00,657,Wunderground v.1.15,2013-02-19 20:10:00,
2013-02-19 15:16:00,74.9,59.1,30.06,WSW,254,15.0,24.0,58,0.00,,,0.00,153,Wunderground v.1.15,2013-02-19 20:16:00,
2013-02-19 15:21:00,74.7,58.5,30.05,SW,231,13.0,24.0,57,0.00,,,0.00,682,Wunderground v.1.15,2013-02-19 20:21:00,
2013-02-19 15:26:00,74.3,59.0,30.06,SW,229,15.0,24.0,59,0.00,,,0.00,218,Wunderground v.1.15,2013-02-19 20:26:00,
2013-02-19 15:32:00,74.3,58.1,30.06,West,261,15.0,24.0,57,0.00,,,0.00,172,Wunderground v.1.15,2013-02-19 20:32:00,
2013-02-19 15:37:00,74.7,60.8,30.06,West,281,11.0,24.0,62,0.00,,,0.00,272,Wunderground v.1.15,2013-02-19 20:37:00,
2013-02-19 15:42:00,75.4,60.5,30.06,West,271,11.0,24.0,60,0.00,,,0.00,158,Wunderground v.1.15,2013-02-19 20:42:00,
2013-02-19 15:47:00,75.0,60.2,30.06,WNW,284,14.0,24.0,60,0.00,,,0.00,176,Wunderground v.1.15,2013-02-19 20:47:00,
2013-02-19 15:53:00,75.4,59.1,30.05,WNW,288,12.0,24.0,57,0.00,,,0.00,605,Wunderground v.1.15,2013-02-19 20:53:00,
2013-02-19 15:58:00,75.7,61.3,30.05,West,277,12.0,24.0,61,0.00,,,0.00,533,Wunderground v.1.15,2013-02-19 20:58:00,
2013-02-19 16:04:00,75.3,57.0,30.05,West,259,13.0,25.0,53,0.00,,,0.00,114,Wunderground v.1.15,2013-02-19 21:04:00,
2013-02-19 16:09:00,74.9,60.5,30.05,WSW,256,16.0,25.0,61,0.00,,,0.00,132,Wunderground v.1.15,2013-02-19 21:09:00,
2013-02-19 16:14:00,74.4,59.6,30.05,West,271,15.0,25.0,60,0.00,,,0.00,515,Wunderground v.1.15,2013-02-19 21:14:00,
2013-02-19 16:19:00,75.2,59.9,30.05,WSW,256,14.0,25.0,59,0.00,,,0.00,487,Wunderground v.1.15,2013-02-19 21:19:00,
2013-02-19 16:25:00,75.2,59.4,30.05,WSW,258,15.0,25.0,58,0.00,,,0.00,185,Wunderground v.1.15,2013-02-19 21:25:00,
2013-02-19 16:30:00,74.7,60.4,30.05,WSW,254,14.0,14.0,61,0.00,,,0.00,97,Wunderground v.1.15,2013-02-19 21:30:00,
2013-02-19 16:35:00,74.1,59.8,30.05,West,271,13.0,25.0,61,0.00,,,0.00,111,Wunderground v.1.15,2013-02-19 21:35:00,
2013-02-19 16:41:00,74.3,60.0,30.05,West,265,12.0,25.0,61,0.00,,,0.00,323,Wunderground v.1.15,2013-02-19 21:41:00,
2013-02-19 16:46:00,74.8,59.5,30.05,West,264,14.0,25.0,59,0.00,,,0.00,142,Wunderground v.1.15,2013-02-19 21:46:00,
2013-02-19 16:51:00,74.5,59.2,30.04,WSW,252,17.0,25.0,59,0.00,,,0.00,107,Wunderground v.1.15,2013-02-19 21:51:00,
2013-02-19 16:57:00,74.4,60.5,30.05,West,261,15.0,25.0,62,0.00,,,0.00,202,Wunderground v.1.15,2013-02-19 21:57:00,
2013-02-19 17:02:00,74.4,60.1,30.05,West,275,13.0,25.0,61,0.00,,,0.00,250,Wunderground v.1.15,2013-02-19 22:02:00,
2013-02-19 17:07:00,74.4,58.2,30.05,WNW,286,13.0,25.0,57,0.00,,,0.00,163,Wunderground v.1.15,2013-02-19 22:07:00,
2013-02-19 17:12:00,74.4,59.1,30.05,West,267,16.0,22.0,59,0.00,,,0.00,127,Wunderground v.1.15,2013-02-19 22:12:00,
2013-02-19 17:18:00,74.2,58.5,30.05,West,266,16.0,22.0,58,0.00,,,0.00,121,Wunderground v.1.15,2013-02-19 22:18:00,
2013-02-19 17:23:00,73.9,59.6,30.05,West,267,16.0,22.0,61,0.00,,,0.00,104,Wunderground v.1.15,2013-02-19 22:23:00,
2013-02-19 17:28:00,73.5,59.2,30.06,West,271,16.0,22.0,61,0.00,,,0.00,137,Wunderground v.1.15,2013-02-19 22:28:00,
2013-02-19 17:34:00,73.4,57.7,30.06,WSW,258,15.0,22.0,58,0.00,,,0.00,95,Wunderground v.1.15,2013-02-19 22:34:00,
2013-02-19 17:39:00,73.4,58.2,30.06,West,281,14.0,22.0,59,0.00,,,0.00,70,Wunderground v.1.15,2013-02-19 22:39:00,
2013-02-19 17:44:00,73.4,59.1,30.06,West,272,14.0,22.0,61,0.00,,,0.00,70,Wunderground v.1.15,2013-02-19 22:44:00,
2013-02-19 17:50:00,73.1,59.3,30.06,West,267,14.0,14.0,62,0.00,,,0.00,46,Wunderground v.1.15,2013-02-19 22:50:00,
2013-02-19 17:55:00,72.9,59.1,30.06,West,279,13.0,22.0,62,0.00,,,0.00,47,Wunderground v.1.15,2013-02-19 22:55:00,
2013-02-19 18:00:00,72.6,58.8,30.06,WSW,256,14.0,14.0,62,0.00,,,0.00,28,Wunderground v.1.15,2013-02-19 23:00:00,
2013-02-19 18:06:00,72.4,60.0,30.06,WSW,256,14.0,25.0,65,0.00,,,0.00,25,Wunderground v.1.15,2013-02-19 23:06:00,
2013-02-19 18:11:00,72.2,58.9,30.06,West,268,12.0,25.0,63,0.00,,,0.00,16,Wunderground v.1.15,2013-02-19 23:11:00,
2013-02-19 18:16:00,71.9,58.6,30.07,West,269,10.0,25.0,63,0.00,,,0.00,9,Wunderground v.1.15,2013-02-19 23:16:00,
2013-02-19 18:22:00,71.7,59.3,30.07,West,260,10.0,25.0,65,0.00,,,0.00,0,Wunderground v.1.15,2013-02-19 23:22:00,
2013-02-19 18:28:00,71.4,60.3,30.07,West,259,9.0,25.0,68,0.00,,,0.00,0,Wunderground v.1.15,2013-02-19 23:28:00,
2013-02-19 18:33:00,71.1,60.0,30.07,West,262,9.0,25.0,68,0.00,,,0.00,0,Wunderground v.1.15,2013-02-19 23:33:00,
2013-02-19 18:38:00,70.8,60.1,30.07,West,259,9.0,25.0,69,0.00,,,0.00,0,Wunderground v.1.15,2013-02-19 23:38:00,
2013-02-19 18:44:00,70.5,59.8,30.07,WSW,258,10.0,25.0,69,0.00,,,0.00,0,Wunderground v.1.15,2013-02-19 23:44:00,
2013-02-19 18:49:00,70.4,60.1,30.07,WSW,257,10.0,25.0,70,0.00,,,0.00,0,Wunderground v.1.15,2013-02-19 23:49:00,
2013-02-19 18:54:00,70.2,60.7,30.07,West,261,9.0,25.0,72,0.00,,,0.00,0,Wunderground v.1.15,2013-02-19 23:54:00,
2013-02-19 19:00:00,69.9,60.5,30.07,West,259,8.0,25.0,72,0.00,,,0.00,0,Wunderground v.1.15,2013-02-20 00:00:00,
2013-02-19 19:05:00,69.7,60.7,30.07,WSW,257,8.0,25.0,73,0.00,,,0.00,0,Wunderground v.1.15,2013-02-20 00:05:00,
2013-02-19 19:10:00,69.6,60.6,30.07,West,259,8.0,19.0,73,0.00,,,0.00,0,Wunderground v.1.15,2013-02-20 00:10:00,
2013-02-19 19:16:00,69.4,60.8,30.07,West,261,8.0,19.0,74,0.00,,,0.00,0,Wunderground v.1.15,2013-02-20 00:16:00,
2013-02-19 19:21:00,69.3,59.9,30.08,WSW,256,9.0,19.0,72,0.00,,,0.00,0,Wunderground v.1.15,2013-02-20 00:21:00,
2013-02-19 19:27:00,69.5,60.5,30.08,West,260,10.0,19.0,73,0.00,,,0.00,0,Wunderground v.1.15,2013-02-20 00:27:00,
2013-02-19 19:32:00,69.5,60.5,30.08,WSW,258,10.0,19.0,73,0.00,,,0.00,0,Wunderground v.1.15,2013-02-20 00:32:00,
2013-02-19 19:37:00,69.5,60.8,30.08,West,261,10.0,19.0,74,0.00,,,0.00,0,Wunderground v.1.15,2013-02-20 00:37:00,
2013-02-19 19:42:00,69.3,60.3,30.08,WSW,257,10.0,19.0,73,0.00,,,0.00,0,Wunderground v.1.15,2013-02-20 00:42:00,
2013-02-19 19:48:00,69.2,60.2,30.08,WSW,253,9.0,19.0,73,0.00,,,0.00,0,Wunderground v.1.15,2013-02-20 00:48:00,
2013-02-19 19:53:00,69.1,60.1,30.08,West,259,9.0,19.0,73,0.00,,,0.00,0,Wunderground v.1.15,2013-02-20 00:53:00,
2013-02-19 19:58:00,69.0,60.4,30.08,West,261,9.0,19.0,74,0.00,,,0.00,0,Wunderground v.1.15,2013-02-20 00:58:00,
2013-02-19 20:03:00,68.9,60.6,30.08,West,267,9.0,19.0,75,0.00,,,0.00,0,Wunderground v.1.15,2013-02-20 01:03:00,
2013-02-19 20:09:00,68.8,60.6,30.09,West,269,10.0,19.0,75,0.00,,,0.00,0,Wunderground v.1.15,2013-02-20 01:09:00,
2013-02-19 20:14:00,68.7,59.7,30.09,West,269,10.0,14.0,73,0.00,,,0.00,0,Wunderground v.1.15,2013-02-20 01:14:00,
2013-02-19 20:20:00,68.6,60.4,30.09,West,266,9.0,14.0,75,0.00,,,0.00,0,Wunderground v.1.15,2013-02-20 01:20:00,
2013-02-19 20:25:00,68.5,60.3,30.09,West,267,10.0,14.0,75,0.00,,,0.00,0,Wunderground v.1.15,2013-02-20 01:25:00,
2013-02-19 20:30:00,68.5,60.3,30.09,West,271,10.0,10.0,75,0.00,,,0.00,0,Wunderground v.1.15,2013-02-20 01:30:00,
2013-02-19 20:36:00,68.3,60.1,30.09,West,270,10.0,14.0,75,0.00,,,0.00,0,Wunderground v.1.15,2013-02-20 01:36:00,
2013-02-19 20:41:00,68.3,60.1,30.09,West,266,10.0,14.0,75,0.00,,,0.00,0,Wunderground v.1.15,2013-02-20 01:41:00,
2013-02-19 20:46:00,68.3,59.7,30.09,West,267,10.0,14.0,74,0.00,,,0.00,0,Wunderground v.1.15,2013-02-20 01:46:00,
2013-02-19 20:52:00,68.1,60.2,30.09,West,271,9.0,14.0,76,0.00,,,0.00,0,Wunderground v.1.15,2013-02-20 01:52:00,
2013-02-19 20:57:00,68.0,59.8,30.09,West,265,10.0,14.0,75,0.00,,,0.00,0,Wunderground v.1.15,2013-02-20 01:57:00,
2013-02-19 21:02:00,68.1,60.2,30.09,WSW,254,10.0,14.0,76,0.00,,,0.00,0,Wunderground v.1.15,2013-02-20 02:02:00,
2013-02-19 21:08:00,68.0,59.8,30.09,West,259,9.0,14.0,75,0.00,,,0.00,0,Wunderground v.1.15,2013-02-20 02:08:00,
2013-02-19 21:13:00,68.0,60.2,30.09,WSW,254,9.0,14.0,76,0.00,,,0.00,0,Wunderground v.1.15,2013-02-20 02:13:00,
2013-02-19 21:19:00,67.8,60.7,30.09,WSW,254,9.0,14.0,78,0.00,,,0.00,0,Wunderground v.1.15,2013-02-20 02:19:00,
2013-02-19 21:24:00,67.6,60.9,30.09,West,261,8.0,14.0,79,0.00,,,0.00,0,Wunderground v.1.15,2013-02-20 02:24:00,
2013-02-19 21:29:00,67.4,60.3,30.09,West,259,8.0,14.0,78,0.00,,,0.00,0,Wunderground v.1.15,2013-02-20 02:29:00,
2013-02-19 21:35:00,67.3,60.6,30.09,West,261,8.0,14.0,79,0.00,,,0.00,0,Wunderground v.1.15,2013-02-20 02:35:00,
2013-02-19 21:40:00,67.2,60.5,30.10,West,264,8.0,14.0,79,0.00,,,0.00,0,Wunderground v.1.15,2013-02-20 02:40:00,
2013-02-19 21:45:00,67.1,60.4,30.10,West,263,8.0,14.0,79,0.00,,,0.00,0,Wunderground v.1.15,2013-02-20 02:45:00,
2013-02-19 21:51:00,67.1,60.4,30.09,West,259,8.0,14.0,79,0.00,,,0.00,0,Wunderground v.1.15,2013-02-20 02:51:00,
2013-02-19 21:56:00,67.0,60.3,30.09,WSW,256,8.0,14.0,79,0.00,,,0.00,0,Wunderground v.1.15,2013-02-20 02:56:00,
2013-02-19 22:01:00,66.9,60.2,30.09,WSW,254,7.0,14.0,79,0.00,,,0.00,0,Wunderground v.1.15,2013-02-20 03:01:00,
2013-02-19 22:07:00,66.9,60.5,30.09,WSW,254,6.0,14.0,80,0.00,,,0.00,0,Wunderground v.1.15,2013-02-20 03:07:00,
2013-02-19 22:12:00,66.7,60.3,30.09,WSW,254,6.0,14.0,80,0.00,,,0.00,0,Wunderground v.1.15,2013-02-20 03:12:00,
2013-02-19 22:17:00,66.6,60.2,30.09,WSW,254,6.0,14.0,80,0.00,,,0.00,0,Wunderground v.1.15,2013-02-20 03:17:00,
2013-02-19 22:22:00,66.5,59.8,30.09,WSW,254,6.0,14.0,79,0.00,,,0.00,0,Wunderground v.1.15,2013-02-20 03:22:00,
2013-02-19 22:28:00,66.5,60.5,30.09,WSW,254,5.0,14.0,81,0.00,,,0.00,0,Wunderground v.1.15,2013-02-20 03:28:00,
2013-02-19 22:33:00,66.4,60.7,30.09,WSW,254,5.0,14.0,82,0.00,,,0.00,0,Wunderground v.1.15,2013-02-20 03:33:00,
2013-02-19 22:38:00,66.2,60.5,30.09,WSW,254,4.0,14.0,82,0.00,,,0.00,0,Wunderground v.1.15,2013-02-20 03:38:00,
2013-02-19 22:44:00,65.8,60.2,30.09,WSW,254,3.0,14.0,82,0.00,,,0.00,0,Wunderground v.1.15,2013-02-20 03:44:00,
2013-02-19 22:49:00,65.3,59.0,30.08,WSW,254,1.0,14.0,80,0.00,,,0.00,0,Wunderground v.1.15,2013-02-20 03:49:00,
2013-02-19 22:55:00,64.7,58.7,30.08,WSW,254,0.0,14.0,81,0.00,,,0.00,0,Wunderground v.1.15,2013-02-20 03:55:00,
2013-02-19 23:00:00,64.2,58.6,30.08,WSW,254,0.0,14.0,82,0.00,,,0.00,0,Wunderground v.1.15,2013-02-20 04:00:00,
2013-02-19 23:05:00,63.8,58.2,30.08,WSW,254,0.0,14.0,82,0.00,,,0.00,0,Wunderground v.1.15,2013-02-20 04:05:00,
2013-02-19 23:10:00,63.4,57.8,30.08,WSW,254,0.0,11.0,82,0.00,,,0.00,0,Wunderground v.1.15,2013-02-20 04:10:00,
2013-02-19 23:16:00,63.0,57.8,30.08,WSW,254,0.0,11.0,83,0.00,,,0.00,0,Wunderground v.1.15,2013-02-20 04:16:00,
2013-02-19 23:21:00,62.7,57.5,30.08,WSW,254,0.0,11.0,83,0.00,,,0.00,0,Wunderground v.1.15,2013-02-20 04:21:00,
2013-02-19 23:27:00,62.4,57.5,30.08,WSW,254,0.0,11.0,84,0.00,,,0.00,0,Wunderground v.1.15,2013-02-20 04:27:00,
2013-02-19 23:33:00,62.2,57.3,30.08,WSW,254,0.0,11.0,84,0.00,,,0.00,0,Wunderground v.1.15,2013-02-20 04:33:00,
2013-02-19 23:38:00,62.0,57.1,30.08,WSW,254,0.0,11.0,84,0.00,,,0.00,0,Wunderground v.1.15,2013-02-20 04:38:00,
2013-02-19 23:43:00,61.8,57.2,30.08,WSW,254,0.0,11.0,85,0.00,,,0.00,0,Wunderground v.1.15,2013-02-20 04:43:00,
2013-02-19 23:49:00,61.7,57.1,30.08,WSW,254,0.0,11.0,85,0.00,,,0.00,0,Wunderground v.1.15,2013-02-20 04:49:00,
2013-02-19 23:54:00,61.5,56.9,30.07,WSW,254,0.0,11.0,85,0.00,,,0.00,0,Wunderground v.1.15,2013-02-20 04:54:00,
2013-02-19 23:59:00,61.4,57.2,30.07,WSW,254,0.0,11.0,86,0.00,,,0.00,0,Wunderground v.1.15,2013-02-20 04:59:00,